Regional Weather Roundup
Issued by NWS

Home | Current Version | Previous Version | Text Only | Print | Product List | Glossary Off
Versions: 1 2 3 4 5 6 7 8 9 10 11 12 13 14 15 16 17 18 19 20 21 22 23 24 25 26 27 28 29 30 31 32 33 34 35 36 37 38 39 40 41 42 43 44 45 46 47 48 49 50

883
ASUS43 KFSD 260402
RWRSD

WEATHER ROUNDUP FOR SOUTH DAKOTA
NATIONAL WEATHER SERVICE SIOUX FALLS SD
1100 PM CDT SUN JUN 25 2017

NOTE: "FAIR" INDICATES FEW OR NO CLOUDS BELOW 12,000 FEET WITH NO
SIGNIFICANT WEATHER AND/OR OBSTRUCTIONS TO VISIBILITY.


SDZ001>005-009-010-012>017-260500-
NORTHWEST AND NORTH CENTRAL SOUTH DAKOTA

CITY           SKY/WX    TMP DP  RH WIND       PRES   REMARKS
BUFFALO          N/A     57  39  51 E9        30.19R
FAITH            N/A     55  41  59 E8        30.23R
MOBRIDGE       CLEAR     58  44  60 E10       30.20R
$$

SDZ012>016-024>037-041>051-057-063-072>074-260500-
SOUTHWEST AND SOUTH CENTRAL SOUTH DAKOTA

CITY           SKY/WX    TMP DP  RH WIND       PRES   REMARKS
RAPID CTY ARPT CLEAR     61  33  35 NE13      30.22R
PIERRE         CLEAR     57  45  64 NE9       30.19R
CUSTER         CLEAR     57  27  31 NE6       30.32S
ELLSWORTH AFB  CLEAR     65  36  34 NE10      30.23R
PHILIP         CLEAR     61  41  47 NE12      30.20R
PINE RIDGE     PTCLDY    62  47  57 E6        30.21R
SPEARFISH      FAIR      55  36  47 S6        30.28R
WINNER         FAIR      65  42  43 SE3       30.16R
$$

SDZ004>011-016>023-039-040-260500-
NORTHEAST SOUTH DAKOTA

CITY           SKY/WX    TMP DP  RH WIND       PRES   REMARKS
ABERDEEN       CLEAR     53  47  79 N5        30.22R
WATERTOWN      CLEAR     50  47  89 CALM      30.20R
BROOKINGS      MOCLDY    54  51  90 SW6       30.21R
SISSETON         N/A     52  47  83 W7        30.18S
$$

SDZ017-020-022-023-036>040-048>070-260500-
SOUTHEAST SOUTH DAKOTA

CITY           SKY/WX    TMP DP  RH WIND       PRES   REMARKS
SIOUX FALLS    LGT RAIN  59  50  72 NE5       30.22R
HURON          LGT RAIN  57  51  80 E6        30.20R
CHAMBERLAIN    CLOUDY    67  45  45 NE10      30.18R
MITCHELL       MOCLDY    61  50  67 E8        30.18R
YANKTON        CLEAR     62  44  51 S8        30.14F
$$

ABBREVIATIONS USED IN REMARKS
   TC - TEMPERATURE IN CELSIUS
  WCI - WIND CHILL INDEX
   HX - HEAT INDEX
  VSB - VISIBILITY





USA.gov is the U.S. government's official web portal to all federal, state and local government web resources and services.